EUTELSAT 7A

Last updated on Tue Jan 06 2026 00:02:50 GMT+0000 (Coordinated Universal Time)

1 28187U 04008A 26005.48319591 .00000099 00000+0 00000+0 0 9997 2 28187 5.4183 73.9755 0001539 247.0764 178.7523 1.00271829 79721

Satellite not in orbit

EUTELSAT 7A